www.dot.il.gov - /desenv/hwystds/rev211/Web PDFs/


[To Parent Directory]

Friday, September 25, 2009 11:05 AM 43490304 1_Rev211_AllHighwayStandards_PDF.exe
Friday, September 25, 2009 11:07 AM 1002496 1_Rev211_Div000_PDF.exe
Friday, September 25, 2009 11:09 AM 479744 1_Rev211_Div200_PDF.exe
Friday, September 25, 2009 11:11 AM 148992 1_Rev211_Div300_PDF.exe
Friday, September 25, 2009 11:13 AM 7148032 1_Rev211_Div400_PDF.exe
Friday, September 25, 2009 11:15 AM 14151680 1_Rev211_Div600_PDF.exe
Friday, September 25, 2009 11:17 AM 6994944 1_Rev211_Div700_PDF.exe
Friday, September 25, 2009 11:18 AM 3457536 1_Rev211_Div800_PDF.exe
Friday, September 25, 2009 11:19 AM 2365952 1_Rev211_DivBLR_PDF.exe
Friday, September 25, 2009 9:06 AM 727140 211-000001-05_StandardSymbolsAbbreviations&Patterns.pdf
Friday, September 25, 2009 9:06 AM 128783 211-001001-02_AreasOfReinfRebars.pdf
Friday, September 25, 2009 9:06 AM 146689 211-001006_DecimalOfInch&Foot.pdf
Friday, September 25, 2009 9:06 AM 64524 211-202001-01_EarthMedDitchCheck.pdf
Friday, September 25, 2009 10:26 AM 258734 211-280001-05_TempErosionCntrlSystems.pdf
Friday, September 25, 2009 9:06 AM 131541 211-285001-02_FabricFormedConcRevetmentMats.pdf
Friday, September 25, 2009 9:06 AM 114628 211-353001-04_PCCBseCseWithHMABind&SurfCses.pdf
Friday, September 25, 2009 9:06 AM 274490 211-406001-05_EntrRampTermFlexPvmt.pdf
Friday, September 25, 2009 9:06 AM 417145 211-406101-04_ExitRampTerminalFlexiblePvmt.pdf
Friday, September 25, 2009 9:06 AM 92291 211-406201-01_MailboxTurnout.pdf
Friday, September 25, 2009 9:06 AM 258473 211-420001-07_PavementJoints.pdf
Friday, September 25, 2009 9:06 AM 115008 211-420101-04_24ftJointedPCCPvmt.pdf
Friday, September 25, 2009 9:06 AM 135172 211-420106-04_36ftJointedPCCPvmt.pdf
Friday, September 25, 2009 9:06 AM 328986 211-420111-02_PCCPvmtRoundouts.pdf
Friday, September 25, 2009 9:06 AM 350193 211-420201-07_EntrRampTerm-PCCAdjToPCC.pdf
Friday, September 25, 2009 9:06 AM 354855 211-420206-08_EntrRampTerm-PCCAdjToCRC.pdf
Friday, September 25, 2009 9:06 AM 508010 211-420301-04_ExitRampTerm-PCCAdjToPCC.pdf
Friday, September 25, 2009 9:07 AM 501693 211-420306-06_ExitRampTerm-PCCAdjToCRC.pdf
Friday, September 25, 2009 10:26 AM 202209 211-420401-08_BridgeApproachPvmt.pdf
Friday, September 25, 2009 9:07 AM 112025 211-420501-04_PCCPvmt&PCCBseCseAdjToRRGradeXing.pdf
Friday, September 25, 2009 9:07 AM 92818 211-420601-05_24ftPCCPvmt.pdf
Friday, September 25, 2009 9:07 AM 131889 211-420701-02_PavementFabric.pdf
Friday, September 25, 2009 9:07 AM 137652 211-421001-02_BarReinfForCRCPvmt.pdf
Friday, September 25, 2009 9:08 AM 482366 211-421101-07_24ftCRCPvmt-wWideFlangeBeamTermJt.pdf
Friday, September 25, 2009 9:08 AM 489591 211-421106-07_36ftCRCPvmt-wWideFlangeBeamTermJt.pdf
Friday, September 25, 2009 9:08 AM 363620 211-421201-06_24ftCRCPvmt-wLugSys.pdf
Friday, September 25, 2009 9:08 AM 389705 211-421206-06_36ftCRCPvmt-wLugSys.pdf
Friday, September 25, 2009 9:08 AM 250267 211-424001-05_CurbRampsForSidewalk.pdf
Friday, September 25, 2009 9:09 AM 208919 211-442001-04_ClassAPatches.pdf
Friday, September 25, 2009 9:09 AM 305551 211-442101-07_ClassBPatches.pdf
Friday, September 25, 2009 9:09 AM 151949 211-442201-03_ClassC&DPatches.pdf
Friday, September 25, 2009 9:09 AM 124567 211-482001-02_HMAShldAdjToFlexPvmt.pdf
Friday, September 25, 2009 9:09 AM 123389 211-482006-03_HMAShldAdjToRigidPvmt.pdf
Friday, September 25, 2009 9:09 AM 230871 211-482011-03_HMAShldStrips(Shlds)wResurfOrWiden&ResurfProj.pdf
Friday, September 25, 2009 9:09 AM 186602 211-483001-04_PCCShld.pdf
Friday, September 25, 2009 9:09 AM 309853 211-509001-01_TubularThrieBeamRetrofitRailForBridge.pdf
Friday, September 25, 2009 9:09 AM 153930 211-515001-03_NamePlateForBridges.pdf
Friday, September 25, 2009 9:09 AM 123980 211-542001-02_ReinfConcEndSect-wParallelWngwalls12-48inDiaRtAngle.pdf
Friday, September 25, 2009 9:10 AM 161852 211-542101-02_ReinfConcEndSectForPipeCulv15-36inDiaRtAngle.pdf
Friday, September 25, 2009 9:10 AM 279823 211-542106-02_ReinfConcEndSectForPipeCulv42-60inDiaRtAngle.pdf
Friday, September 25, 2009 9:10 AM 303327 211-542111-02_ReinfConcEndSectForPipeCulv66-84inDiaRtAngle.pdf
Friday, September 25, 2009 9:10 AM 368803 211-542116-02_ReinfConcEndSectForMultPipeCulv15-36inDiaRtAngle.pdf
Friday, September 25, 2009 9:10 AM 399005 211-542121-02_ReinfConcEndSectForMultPipeCulv42-60inDiaRtAngle.pdf
Friday, September 25, 2009 9:10 AM 1534124 211-542201-02_ReinfConcEndSectForPipeCulv15-36inDiaSkewed.pdf
Friday, September 25, 2009 9:10 AM 967540 211-542206-01_ReinfConcEndSectForPipeCulv42-60inDiaSkewed.pdf
Friday, September 25, 2009 9:10 AM 162706 211-542301-02_PrecastReinfConcFlaredEndSect.pdf
Friday, September 25, 2009 9:10 AM 137514 211-542306-02_PrecastReinfConcEllipticalFlaredEndSect.pdf
Friday, September 25, 2009 9:10 AM 321217 211-542311-01_GratingForConcFlaredEndSection24-54inPipe.pdf
Friday, September 25, 2009 9:10 AM 196707 211-542401-01_MetalEndSectForPipeCulv.pdf
Friday, September 25, 2009 9:10 AM 196847 211-542406-01_MetalEndSectForPipeArch.pdf
Friday, September 25, 2009 9:10 AM 203226 211-542501-02_InletBoxTypeA24in.pdf
Friday, September 25, 2009 9:10 AM 237219 211-542506-02_InletBoxTypeB24in.pdf
Friday, September 25, 2009 9:10 AM 236040 211-542511-02_InletBoxTypeC24in.pdf
Friday, September 25, 2009 9:10 AM 252549 211-542516-02_InletBoxTypeD24in.pdf
Friday, September 25, 2009 9:10 AM 254649 211-542521-02_InletBoxTypeE24in.pdf
Friday, September 25, 2009 9:10 AM 262906 211-542526-02_InletBoxTypeF24in.pdf
Friday, September 25, 2009 9:10 AM 233689 211-542531-03_InletBoxTypeG24in.pdf
Friday, September 25, 2009 10:26 AM 241143 211-542536-03_InletBoxTypeA36in.pdf
Friday, September 25, 2009 9:10 AM 274601 211-542541-02_InletBoxTypeA48in.pdf
Friday, September 25, 2009 9:10 AM 165403 211-542546-01_FlushInletBoxForMedian.pdf
Friday, September 25, 2009 10:26 AM 88789 211-542601-02_RCPipeElbow.pdf
Friday, September 25, 2009 9:10 AM 195026 211-542606-01_RCPipeTee.pdf
Friday, September 25, 2009 9:10 AM 291483 211-601001-03_SubSurfDrains.pdf
Friday, September 25, 2009 9:10 AM 70258 211-601101-01_ConcHdwForPipeDrain.pdf
Friday, September 25, 2009 9:10 AM 129170 211-602001-01_CatchBasin-TypeA.pdf
Friday, September 25, 2009 9:10 AM 132030 211-602006-02_CatchBasin-TypeB.pdf
Friday, September 25, 2009 9:10 AM 80368 211-602011-01_CatchBasin-TypeC.pdf
Friday, September 25, 2009 9:10 AM 164373 211-602016-01_CatchBasin-TypeD.pdf
Friday, September 25, 2009 9:10 AM 241752 211-602101-02_DrainStruc-Type1&2&3.pdf
Friday, September 25, 2009 9:10 AM 239829 211-602106-01_DrainStruc-Type4&5&6.pdf
Friday, September 25, 2009 9:10 AM 75653 211-602301-02_Inlet-TypeA.pdf
Friday, September 25, 2009 9:10 AM 107141 211-602306-02_Inlet-TypeB.pdf
Friday, September 25, 2009 9:10 AM 120020 211-602401-02_Manhole-TypeA.pdf
Friday, September 25, 2009 9:10 AM 216871 211-602406-03_Manhole-TypeA6ftDia.pdf
Friday, September 25, 2009 9:10 AM 238345 211-602411-01_Manhole-TypeA7ftDia.pdf
Friday, September 25, 2009 9:10 AM 240465 211-602416-01_Manhole-TypeA8ftDia.pdf
Friday, September 25, 2009 9:10 AM 236697 211-602421-01_Manhole-TypeA9ftDia.pdf
Friday, September 25, 2009 9:10 AM 117792 211-602501-01_ValveVault-TypeA.pdf
Friday, September 25, 2009 9:10 AM 133047 211-602601-02_PrecastReinfConcFlatSlabTop.pdf
Friday, September 25, 2009 9:10 AM 91242 211-602701-02_ManholeSteps.pdf
Friday, September 25, 2009 9:10 AM 83554 211-604001-03_Frame&Lids-Type1.pdf
Friday, September 25, 2009 9:10 AM 107081 211-604006-04_Frame&GrateType3.pdf
Friday, September 25, 2009 9:10 AM 114182 211-604011-04_Frame&GrateType3V.pdf
Friday, September 25, 2009 9:10 AM 63198 211-604016-02_Frame&GrateType4.pdf
Friday, September 25, 2009 9:10 AM 109691 211-604021-02_BaseFrame&LidsType5.pdf
Friday, September 25, 2009 9:10 AM 83458 211-604026-02_Frame&GrateType6.pdf
Friday, September 25, 2009 9:10 AM 45208 211-604031-02_GrateType7.pdf
Friday, September 25, 2009 9:10 AM 51428 211-604036-02_GrateType8.pdf
Friday, September 25, 2009 9:10 AM 70944 211-604041-02_Frame&GrateType9.pdf
Friday, September 25, 2009 9:10 AM 71314 211-604046-02_Frame&GrateType10.pdf
Friday, September 25, 2009 9:10 AM 107364 211-604051-03_Frame&GrateType11.pdf
Friday, September 25, 2009 9:11 AM 121215 211-604056-03_Frame&GrateType11V.pdf
Friday, September 25, 2009 9:11 AM 78284 211-604061-02_Frame&GrateType12.pdf
Friday, September 25, 2009 9:11 AM 115716 211-604066-02_Frame&LidType15.pdf
Friday, September 25, 2009 9:11 AM 83386 211-604071-04_Frame&GrateType20.pdf
Friday, September 25, 2009 9:11 AM 106004 211-604076-04_Frame&GrateType21.pdf
Friday, September 25, 2009 9:11 AM 97590 211-604081-04_Frame&GrateType22.pdf
Friday, September 25, 2009 9:11 AM 109731 211-604086-02_Frame&GrateType23.pdf
Friday, September 25, 2009 9:11 AM 106018 211-604091-02_Frame&GrateType24.pdf
Friday, September 25, 2009 9:11 AM 120146 211-604101-01_MedianInletFor24inRCPipe.pdf
Friday, September 25, 2009 9:11 AM 128082 211-604106-01_MedianInletFor36inRCPipe.pdf
Friday, September 25, 2009 9:11 AM 314928 211-606001-04_ConcCurbTypeB&ComboConcC&G.pdf
Friday, September 25, 2009 9:11 AM 311224 211-606006-02_OutletsForConcC&G-TypeB-6.24.pdf
Friday, September 25, 2009 9:11 AM 281763 211-606101-04_TypeAGut-InlOutl&Entr.pdf
Friday, September 25, 2009 9:11 AM 133376 211-606106-04_OutlType1ForTypeAGut.pdf
Friday, September 25, 2009 9:11 AM 145554 211-606111-03_OutlType2ForTypeAGut.pdf
Friday, September 25, 2009 9:11 AM 242419 211-606201-02_TypeBGut-InlOutl&Entr.pdf
Friday, September 25, 2009 9:11 AM 126181 211-606206-03_OutlType1ForTypeBGut.pdf
Friday, September 25, 2009 9:11 AM 146175 211-606211-03_OutlType2ForTypeBGut.pdf
Friday, September 25, 2009 9:11 AM 331036 211-606301-04_PCCIslands&Medians.pdf
Friday, September 25, 2009 9:11 AM 119239 211-606306-03_CorrugatedPCCMedians.pdf
Friday, September 25, 2009 9:11 AM 162217 211-606401-01_PavedDitch.pdf
Friday, September 25, 2009 10:26 AM 293967 211-609001-05_BridgeApproachShldPvmt&Drain.pdf
Friday, September 25, 2009 10:26 AM 286702 211-609006-05_BridgeApproachPvmt(DrainDetail).pdf
Friday, September 25, 2009 10:26 AM 285760 211-610001-05_ShldInletWithCurb.pdf
Friday, September 25, 2009 9:11 AM 382419 211-630001-08_SteelPlateBeamGrdrail.pdf
Friday, September 25, 2009 9:11 AM 209652 211-630101-08_GuardrailMountedOnExCulv.pdf
Friday, September 25, 2009 9:11 AM 128080 211-630201-06_PCC-BitStb@SteelPlateBeamGrdRail.pdf
Friday, September 25, 2009 9:11 AM 145831 211-630301-05_ShldWidenForType1GrdrailTerms.pdf
Friday, September 25, 2009 10:26 AM 106212 211-631006-07_TrafBarTermType1B.pdf
Friday, September 25, 2009 10:26 AM 110062 211-631011-06_TrafBarTermType2.pdf
Friday, September 25, 2009 9:11 AM 157438 211-631026-05_TrafBarTermType5.pdf
Friday, September 25, 2009 10:26 AM 275964 211-631031-08_TrafBarTermType6.pdf
Friday, September 25, 2009 10:26 AM 321231 211-631032-05_TrafBarTermType6A.pdf
Friday, September 25, 2009 9:11 AM 229831 211-631033-03_TrafBarTermType6B.pdf
Friday, September 25, 2009 9:11 AM 157638 211-631036-05_TrafBarTermType8.pdf
Friday, September 25, 2009 9:11 AM 148624 211-631041-02_TrafBarTermType9.pdf
Friday, September 25, 2009 9:11 AM 133687 211-631046-04_TrafBarTermType10.pdf
Friday, September 25, 2009 9:11 AM 162148 211-631051-02_TrafBarTermType11.pdf
Friday, September 25, 2009 9:11 AM 134154 211-631056-02_TrafBarTermType12.pdf
Friday, September 25, 2009 9:11 AM 227269 211-635001-01_Delineators.pdf
Friday, September 25, 2009 9:11 AM 107894 211-635006-03_Reflector&TermMrkrPlacemnt.pdf
Friday, September 25, 2009 9:11 AM 191258 211-635011-02_ReflectorMrkr&MountDetails.pdf
Friday, September 25, 2009 9:11 AM 398872 211-636001-02_CableRdGrd-SingleStrand.pdf
Friday, September 25, 2009 9:11 AM 179018 211-637001-04_ConcBarrierDblFace32in.pdf
Friday, September 25, 2009 9:11 AM 181399 211-637006-02_ConcBarrierDblFace42in.pdf
Friday, September 25, 2009 9:11 AM 98966 211-638001-02_GlareScreenBlades.pdf
Friday, September 25, 2009 9:11 AM 72354 211-638101-02_ConcGlareScreen.pdf
Friday, September 25, 2009 9:11 AM 239726 211-639001-02_Sightscrn-PrecstPrestressConcPanelWall.pdf
Friday, September 25, 2009 9:11 AM 302137 211-640001-01_Sightscrn-ChainLinkFence.pdf
Friday, September 25, 2009 9:11 AM 129325 211-641001-01_Sightscrn-CedarStckadeFenceTypeS.pdf
Friday, September 25, 2009 9:11 AM 122776 211-641006-01_Sightscrn-WoodPlankFenceTypeP.pdf
Friday, September 25, 2009 9:11 AM 103791 211-642001-01_ShldRumbleStrips.pdf
Friday, September 25, 2009 9:11 AM 488032 211-664001-02_ChainLinkFence.pdf
Friday, September 25, 2009 9:11 AM 622199 211-665001-02_WovenWireFence.pdf
Friday, September 25, 2009 9:11 AM 95146 211-666001-01_ROWMrkrs.pdf
Friday, September 25, 2009 9:11 AM 65699 211-667001-01_DrainageMrkrs.pdf
Friday, September 25, 2009 9:11 AM 106411 211-667101-01_PermanentSurveyMrkrs.pdf
Friday, September 25, 2009 9:11 AM 52106 211-668001-01_MethOfResetting-USGS&NGS-Benchmarks.pdf
Friday, September 25, 2009 9:11 AM 60038 211-701001-02_OffRdOp-2L2W-15ftMinFromEOP-45MPH+.pdf
Friday, September 25, 2009 9:11 AM 99009 211-701006-03_OffRdOp-2L2W-15ftToEOP-45MPH+.pdf
Friday, September 25, 2009 9:11 AM 96045 211-701011-02_OffRdMovingOp-2L2W-DayOnly-45MPH+.pdf
Friday, September 25, 2009 9:11 AM 101242 211-701101-02_OffRdOp-MultiLn-LessThan15ftToEOP.pdf
Friday, September 25, 2009 9:11 AM 64290 211-701106-02_OffRdOp-MultiLn-MoreThan15ftAway.pdf
Friday, September 25, 2009 9:11 AM 112962 211-701201-03_LnClosure2L2W-DayOnly.pdf
Friday, September 25, 2009 9:11 AM 96012 211-701206-02_LnClosure2L2W-NightOnly45MPH+.pdf
Friday, September 25, 2009 9:11 AM 100221 211-701301-03_LnClosure2L2W-ShortTimeOp.pdf
Friday, September 25, 2009 9:11 AM 111750 211-701306-02_LnClosure2L2W-SlowMoveOpDayOnly45MPH+.pdf
Friday, September 25, 2009 9:11 AM 88807 211-701311-03_LnClosure2L2W-MovingOpDayOnly.pdf
Friday, September 25, 2009 9:11 AM 358402 211-701316-04_LnClosure2L2W-BridgeRepair45MPH+.pdf
Friday, September 25, 2009 9:11 AM 247175 211-701321-10 LnClosure2L2W-BridgeRepair+Barrier.pdf
Friday, September 25, 2009 9:11 AM 127890 211-701326-03_LnClosure2L2W-PvmtWidening45MPH+.pdf
Friday, September 25, 2009 9:11 AM 150807 211-701331-03_LnClosure2L2W+RunAround45MPH+.pdf
Friday, September 25, 2009 9:11 AM 152700 211-701336-05_LnClosure2L2W-WorkAreasInSeries45MPH+.pdf
Friday, September 25, 2009 10:26 AM 131782 211-701400-04_ApprchToLnClosure-FrwayExpway.pdf
Friday, September 25, 2009 9:11 AM 166743 211-701401-05_LnClosureFrwayExpway.pdf
Friday, September 25, 2009 9:11 AM 135382 211-701402-07_LnClosureFrwayExpway+Barrier.pdf
Friday, September 25, 2009 9:11 AM 137577 211-701406-05_LnClosureFrwayExpway-DayOpOnly.pdf
Friday, September 25, 2009 10:26 AM 266089 211-701411-06_LnClosureMultiLn-EntrOrExitRamp45MPH+.pdf
Friday, September 25, 2009 9:11 AM 143293 211-701416-06_LnClosureFrwayExpway+Crossover&Barrier.pdf
Friday, September 25, 2009 9:11 AM 157054 211-701421-02_LnClosureMultiLn-DayOpOnly45-55MPH.pdf
Friday, September 25, 2009 9:11 AM 185851 211-701422-02_LnClosureMultiLn-45-55MPH.pdf
Friday, September 25, 2009 9:11 AM 164136 211-701423-03_LnClosureMultiln+Barrier45-55MPH.pdf
Friday, September 25, 2009 9:11 AM 153743 211-701426-03_LnClosureMultiLn-IntermittantOrMovingOp45MPH+.pdf
Friday, September 25, 2009 9:11 AM 194390 211-701431-05_LnClosureMultiLnUndivided+Crossover45-55MPH.pdf
Friday, September 25, 2009 9:11 AM 185193 211-701446-01_TwoLnClosure-FrwayExpway.pdf
Friday, September 25, 2009 10:26 AM 76724 211-701451-01_RampClosureFreewayExp.pdf
Friday, September 25, 2009 9:11 AM 63829 211-701456_PartialExitRampClosureFrewayExp.pdf
Friday, September 25, 2009 9:11 AM 122297 211-701501-05_UrbanLnClosure2L2W-Undivided.pdf
Friday, September 25, 2009 9:11 AM 205079 211-701502-03_UrbanLnClosure2L2W+BidirectLeftTurnLn.pdf
Friday, September 25, 2009 9:11 AM 185674 211-701601-06_UrbanLnClosureMultiLn1W2W+NontrvsableMed.pdf
Friday, September 25, 2009 9:11 AM 339414 211-701602-04_UrbanLnClosureMultiLn2W+BidirectLeftTurnLn.pdf
Friday, September 25, 2009 9:11 AM 214681 211-701606-06_UrbanLnClosureMultiLn2W+MountableMed.pdf
Friday, September 25, 2009 9:11 AM 150548 211-701701-06_UrbanLnClosureMultiLnIntersection.pdf
Friday, September 25, 2009 9:11 AM 128994 211-701801-04_LnClosureMultiLn1W2W+CrosswalkOrSWClosure.pdf
Friday, September 25, 2009 9:11 AM 331313 211-701901-01_TrafCntrlDevices.pdf
Friday, September 25, 2009 10:26 AM 203815 211-704001-06_TempConcBarrier.pdf
Friday, September 25, 2009 9:11 AM 99014 211-720001-01_SignPanelMountDetails.pdf
Friday, September 25, 2009 9:11 AM 105702 211-720006-02_SignPanelErectDetails.pdf
Friday, September 25, 2009 9:11 AM 89595 211-720011-01_MetalPostsForSignsMrkrs&Delineators.pdf
Friday, September 25, 2009 9:11 AM 123292 211-720016-02_MastArmMountedStNameSigns.pdf
Friday, September 25, 2009 9:11 AM 222896 211-720021-02_SignPanels-ExtrudedAlumType.pdf
Friday, September 25, 2009 9:11 AM 78083 211-728001-01_TelescopingSteelSignSupport.pdf
Friday, September 25, 2009 9:11 AM 115813 211-729001-01_AppOfTypesA&BPosts.pdf
Friday, September 25, 2009 9:11 AM 77240 211-731001-01_BaseForTelescopingSteelSignSupport.pdf
Friday, September 25, 2009 9:11 AM 190265 211-780001-02_TypicalPvmtMrkings.pdf
Friday, September 25, 2009 9:11 AM 114218 211-781001-03_TypicalAppRaisedReflcPvmtMrkrs.pdf
Friday, September 25, 2009 9:11 AM 121623 211-805001-01_ElecSrvcInstallDetails.pdf
Friday, September 25, 2009 9:11 AM 94045 211-814001-02_Handholes.pdf
Friday, September 25, 2009 9:11 AM 130115 211-814006-02_DoubleHandholes.pdf
Friday, September 25, 2009 10:26 AM 137900 211-825001_LightingControllerPoleMount240V.pdf
Friday, September 25, 2009 10:26 AM 150475 211-825006_LightingControllerPoleMount480V.pdf
Friday, September 25, 2009 10:26 AM 147960 211-825011_LightingControllerPedestalMount240V.pdf
Friday, September 25, 2009 10:26 AM 160406 211-825016_LightingControllerPedestalMount480V.pdf
Friday, September 25, 2009 10:26 AM 154418 211-825021_LightingControllerBaseMount240V.pdf
Friday, September 25, 2009 10:26 AM 166876 211-825026_LightingControllerBaseMount480V.pdf
Friday, September 25, 2009 10:26 AM 225864 211-836001_LightPoleFoundation.pdf
Friday, September 25, 2009 10:26 AM 271177 211-837001_LightTowerFoundation.pdf
Friday, September 25, 2009 9:11 AM 137139 211-857001-01_StdPhaseDesignationDiagrams&PhaseSeq.pdf
Friday, September 25, 2009 9:11 AM 92683 211-857006-01_SupervisedRRInterconnectCircuit-.pdf
Friday, September 25, 2009 9:11 AM 40094 211-862001-01_UPS.pdf
Friday, September 25, 2009 9:11 AM 128355 211-873001-02_TrafSignalGround&Bond.pdf
Friday, September 25, 2009 9:11 AM 58210 211-876001-01_PedestrianPushButtonPost.pdf
Friday, September 25, 2009 9:11 AM 103936 211-877001-04_SteelMastArmAssembly&Pole16'thre55'.pdf
Friday, September 25, 2009 9:11 AM 106135 211-877002-01_SteelMastArmAssembly&Pole56'thru75'.pdf
Friday, September 25, 2009 9:11 AM 127329 211-877006-03_SteelMastArmAssembly&Pole+DualMastArms.pdf
Friday, September 25, 2009 9:11 AM 155171 211-877011-04_SteelComboMastArmAssembly&Pole16'thru55'.pdf
Friday, September 25, 2009 9:11 AM 157054 211-877012-01_SteelComboMastArmAssembly&Pole56'thru75'.pdf
Friday, September 25, 2009 10:26 AM 229853 211-878001-08_ConcreteFoundationDetails.pdf
Friday, September 25, 2009 9:11 AM 140515 211-880001-01_SpanWireMountSignals&FlashBeaconInstall.pdf
Friday, September 25, 2009 9:11 AM 85329 211-880006-01_TrfSignalMountDetails-Post&BracketMount.pdf
Friday, September 25, 2009 9:11 AM 138769 211-886001-01_DetectorLoopInstallations.pdf
Friday, September 25, 2009 9:11 AM 73739 211-886006-01_TypicalLayoutsForDetectionLoops.pdf
Friday, September 25, 2009 9:11 AM 338666 211-BLR10-6_PCCPvmtSpecial-NonReinf.pdf
Friday, September 25, 2009 9:11 AM 148299 211-BLR14-10_PCCPvmt-NonReinf.pdf
Friday, September 25, 2009 9:11 AM 164874 211-BLR17-4_TrafCntrlDevices-DayLaborConstr.pdf
Friday, September 25, 2009 9:11 AM 171353 211-BLR18-5_TrafCntrlDevices-DayLaborMaint.pdf
Friday, September 25, 2009 9:11 AM 307851 211-BLR20-6_TrafBarrierTermType5R.pdf
Friday, September 25, 2009 9:12 AM 146818 211-BLR21-8_TypAppTrafCntrlDevices-ConstrOnRuralLocalHwys.pdf
Friday, September 25, 2009 9:12 AM 127969 211-BLR22-6_TypAppTrafCntrlDevices-ConstrOnRuralLocalHwys(2L2W-RdClsdToThruTraf).pdf
Friday, September 25, 2009 9:12 AM 283443 211-BLR23-3_TrafBarrierTermType1.pdf
Friday, September 25, 2009 9:12 AM 107352 211-BLR24-2_MailboxTurn-LocalRds.pdf
Friday, September 25, 2009 9:12 AM 42059 211-BLR25-1_Type1ABarrForNonNHSRts.pdf
Friday, September 25, 2009 10:26 AM 390171 211-BLR26-2_SteelPlateBeemGR27.5inchHt.pdf
Friday, September 25, 2009 9:12 AM 170483 211-BLR27-1_TrafBarTermType5A.pdf
Friday, July 08, 2011 10:32 AM <dir> _vti_cnf